Погода в Шаиме

Погода в Шаиме : погода сейчас, прогноз погоды и архив. Всё, что Вы хотите узнать о погоде в Шаиме!

Хотите узнать прогноз погоды в Шаиме? Тогда Вам сюда: Погода в Шаиме

Поиск расширенной информации на нашем сайте:

Полезная информация: безлимитная опера мини на теле2 на андроид

Другие новости

Новости СМИ2

Главная страница сайта

Новости сайта

02.10.2013

Напоминаем, что на нашем новом сайте вы можете получить высокодетализированные прогнозы погоды по пунктам России, СНГ и мира (включающие важные для авиации метеовеличины, такие как направление и скорость ветра, видимость, явления погоды, количество и форма облачности, нижняя и верхняя граница облачности), а также ознакомиться с разнообразными материалами по авиационной метеорологии и подборкой полезных ссылок на эту тему.

Сайт Метеоцентр.Азия посвящён разработке технологий оптимизации авиаметеорологического обслуживания, включая проектирование и перспективное создание нескольких автоматизированных авиаметеорологических систем:
- система выпуска высокодетальных прогностических карт явлений погоды для нижнего воздушного пространства по России и ближнему зарубежью;
- система верификации прогнозов TAF (выпускаемых синоптиками официальных АМСГ РФ и ближнего зарубежья) и AUTOTAF (выпускаемых сайтом Метеоцентр.Азия) - выявление ошибок, онлайн-сопоставление с фактической погодой METAR, автоматическое внесение коррективов в прогнозы при резком отклонении фактической погоды от прогноза, подсчёт оправдываемости прогнозов по элементам и в целом;
- система обработки, анализа и отображения авиаметеорологической информации для применения провайдерами метеорологической информации.

Рекомендуем: Стальной манекен гладильные системы гладильные манекены.

Погода в Шаиме - сегодня

Время (UTC), дата Ветер
(°,м/с) 
Видим.   Явления Облачность Т
(°С)
Тd
(°С)
f(%) Тe
(°С)
Pmin
(гПа)
dP
(гПа)
Po
(мм)
O2
(г/м3)
Тmin Tmax R s Состояние
почвы
09 15.01.17 210 (ЮЗ) 25000 м  [диам. изморози 16 мм]  10/6 600 м средняя, верхняя 
[Sc|Ac trans|Ci fib]
-10.6 -11.9 90 -12  1028.7  0.3  766  322           
12 15.01.17 200 (Ю) 24000 м  [диам. изморози 16 мм]  10/3 600 м средняя, верхняя 
[Sc|Ac trans|Ci fib]
-10.5 -11.8 90 -12  1029.4  0.7  767  322           
15 15.01.17 200 (Ю) 25000 м  [диам. изморози 16 мм]  6/0 средняя, верхняя 
[Ac trans|Ci fib]
-12.1 -13.4 90 -15  1029.3  -0.2  767  325    -9.6       
18 15.01.17 200 (Ю) 26000 м  [диам. изморози 16 мм]  4/0 верхняя 
[Ci fib]
-13.1 -14.6 88 -17  1029.1  -0.3  767  326           
21 15.01.17 200 (Ю) 25000 м  [диам. изморози 16 мм]  3/0 верхняя 
[Ci fib]
-13.4 -15 88 -16  1029.3  0.2  767  326           
00 16.01.17 210 (ЮЗ) 26000 м  [диам. изморози 16 мм]  4/0 верхняя 
[Ci fib]
-13.6 -15.1 88 -17  1029.2  0.1  767  326           
03 16.01.17 200 (Ю) 25000 м  [диам. изморози 16 мм]  8/0 верхняя 
[Ci fib]
-13.2 -14.8 88 -17  1028.9  -0.3  766  326  -14.2      40  равномерный
сухой снег
100% 
06 16.01.17 210 (ЮЗ) 26000 м  [диам. изморози 13 мм]  10/0 верхняя 
[Ci fib]
-12.3 -13.9 88 -14  1029.5  0.6  767  325  -14.2         
09 16.01.17 210 (ЮЗ) 27000 м  [диам. изморози 0 мм]  10/0 верхняя 
[Ci fib]
-10.2 -12.5 83 -12  1029.9  0.4  767  322           
12 16.01.17 200 (Ю) 27000 м  [диам. изморози 0 мм]  6/0 верхняя 
[Ci fib]
-13.1 -14.6 88 -17  1031  768  326           
15 16.01.17 200 (Ю) 26000 м    4/0 верхняя 
[Ci fib]
-13.4 -15 88 -16  1031.2  0.2  768  327    -10       
18 16.01.17 210 (ЮЗ) 25000 м    3/0 верхняя 
[Ci fib]
-13.9 -15.7 86 -16  1031.1  0.1  768  327           
21 16.01.17 200 (Ю) 26000 м    3/0 верхняя 
[Ci fib]
-14.2 -15.9 87 -16  1031.2  -0.1  768  328           
00 17.01.17 180 (Ю) 25000 м    3/0 верхняя 
[Ci fib]
-14.9 -16.8 85 -15  1031.7  0.5  768  329           
03 17.01.17 200 (Ю) 26000 м    3/0 верхняя 
[Ci fib]
-13.7 -15.8 84 -14  1032.1  0.4  769  328  -15.3      40  равномерный
сухой снег
100% 
06 17.01.17 220 (ЮЗ) 27000 м    8/0 верхняя 
[Ci fib]
-11.5 -14.2 80 -11  1032.6  0.5  769  325           
09 17.01.17 240 (ЮЗ) 26000 м    10/0 средняя, верхняя 
[Ac trans|Ci fib]
-8.3 -13.5 66 -11  1032.5  769  321           
12 17.01.17 230 (ЮЗ) 27000 м    10/0 средняя, верхняя 
[Ac trans|Ci fib]
-10.7 -14 77 -13  1033.5  0.8  770  324           
15 17.01.17 200 (Ю) 26000 м    3/0 верхняя 
[Ci fib]
-13.3 -15.5 83 -15  1034.1  0.6  770  328    -8.1       
18 17.01.17 220 (ЮЗ) 25000 м    4/0 верхняя 
[Ci fib]
-13.9 -15.9 85 -16  1033.7  -0.4  770  328           
21 17.01.17 200 (Ю) 26000 м    8/0 верхняя 
[Ci fib]
-15.4 -16.9 88 -18  1033.2  -0.5  770  330           
00 18.01.17 200 (Ю) 27000 м    8/0 верхняя 
[Ci fib]
-16.8 -18.5 87 -19  1032.9  -0.3  769  332           
03 18.01.17 190 (Ю) 26000 м    6/0 верхняя 
[Ci fib]
-17.4 -19.4 84 -18  1031.5  -1.4  768  332  -17.4      40  равномерный
сухой снег
100% 
06 18.01.17 120 (ЮВ) 27000 м    10/0 средняя, верхняя 
[Ac trans|Ci fib]
-19.2 -21.5 82 -19  1031.4  -0.2  768  335  -21.4         
09 18.01.17 тихо ()   28000 м    8/0 средняя, верхняя 
[Ac trans|Ci fib]
-12.9 -15.3 82 -13  1030.1  -1.1  767  326           
Время (UTC), дата Ветер
(°,м/с) 
Видим.   Явления Облачность Т
(°С)
Тd
(°С)
f(%) Тe
(°С)
Pmin
(гПа)
dP
(гПа)
Po
(мм)
O2
(г/м3)
Тmin Tmax R s Состояние
почвы

Для получения пояснительной информации подведите курсор к названию столбца.

ПОГОДА в Шаиме - архив

Всё, что Вы хотите узнать о погоде в Шаиме - удобно и подробно!

Выберите нужную дату (начиная с 1 января 2015* года) и нажмите кнопку "Найти".
Будут отображены архивные сводки погоды по пункту Шаим, начиная с указанной даты.


Отображать данные в формате CSV (для использования в таблицах Excel)


Внимание! Наш архив погоды предназначен исключительно для личного некоммерческого использования в познавательных целях. Если Вам необходимы официальные справки о состоянии погоды (для производственных, юридических, коммерческих и т.п. целей), обращайтесь в органы Росгидромета.

*Примечание: данная дата относится к архиву по метеостанциям СССР (Россия, СНГ, Балтия).
Архив по метеостанциям Зарубежной Европы и Азии (кроме Китая) хранится 10 дней, по другим регионам земного шара (Китай, Африка, Америка, Австралия, Океания) - 1 день.

Шаим - район местоположения метеостанции


Название, широта, долгота, высота метеостанции:
Шаим 60.3°ш. 64.2°д. 53 м над ур. моря [Российская Федерация]

Дополнительная информация

В oтличие oт бoльшинства пoгoдных сайтoв мы публикуем пoдрoбную метеoинфoрмацию в детальнoм прoфессиoнальнoм фoрмате.

Характеристики температуры и влажнoсти вoздуха измеряются на высoте 2 м в тени вдали oт зданий и деревьев.
Скoрoсть ветра измеряется на высoте 10 м (на урoвне рoста челoвека скoрoсть ветра ниже в 1.5-2 раза). Если метеoстанция нахoдится в гoрoде или в лесу, тo скoрoсть ветра занижена на 2-4 м/с пo сравнению с oткрытым местoм. Скoрoсть ветра над акватoриями крупных рек и oзёр, а также на вершинах хoлмoв на 2-5 м/с выше, чем в oбычных услoвиях.
Атмoсфернoе давление в разных тoчках местнoсти мoжет значительнo oтличаться oт давления на метеoстанции, в зависимoсти oт услoвий рельефа (при пoдъёме на 10 м давление пoнижается примернo на 1 мм рт.ст.).